Simultaneous Nadir Overpasses (SNOs) Predictions

Prediction of SNOs between GOES-15 and LANDSAT-8 Satellite Orbit:

Table of predicted SNOs for the next 14.0 days since TLE Epoch: 2/25/2023
Index Date Time (GOES-15) GOES-15 Lat,Lon LANDSAT-8 Lat,Lon Distance(km) Time Diff (sec)
1 02/25/2023 18:42:48 -0.05,-128.08 -0.06,-127.94 15.23 80
2 02/27/2023 18:33:17 -0.05,-128.04 -0.69,-124.99 346.42 80
3 02/28/2023 06:52:02 0.06,-128.05 -0.37,-130.19 242.60 80
4 03/02/2023 06:42:30 0.06,-128.01 0.22,-127.23 88.25 80
5 03/04/2023 06:30:18 0.06,-127.96 0.82,-124.27 418.98 80
6 03/04/2023 18:48:54 -0.07,-127.92 0.25,-129.43 171.75 80
7 03/06/2023 18:39:22 -0.07,-127.87 -0.38,-126.48 158.90 80
8 03/07/2023 06:58:06 0.08,-127.88 -0.72,-131.67 430.69 80
9 03/08/2023 18:27:09 -0.07,-127.82 -0.96,-123.51 489.43 80
10 03/09/2023 06:45:53 0.08,-127.83 -0.14,-128.71 100.18 80
